TKJ33Y LTFJ-LTCG

Flight info

Callsign TKJ33Y
Flight time 1h 15m
Altitude 37000
Route VICEN1J/06L VICEN UT380 ASMAP UL333 LATGA UT363 ESB UT364 ILHAN UW71 TEMEL
Aircraft B738/M-SDE2E3FGHIRWXY/LB1

Departure

Time 2026-05-07 18:43
Airport Istanbul Sabiha Gökçen International Airport (LTFJ)

Arrival

Time 2026-05-07 19:59
Airport Trabzon International Airport (LTCG)
Time Latitude Longitude Altitude Speed Heading
2026-05-07 18:10 40.90671 29.31746 320 ft 0 kts 333°
2026-05-07 18:30 40.90670 29.31747 320 ft 0 kts 333°
2026-05-07 18:31 40.90658 29.31755 320 ft 2 kts 332°
2026-05-07 18:31 40.90645 29.31764 320 ft 2 kts 333°
2026-05-07 18:31 40.90636 29.31770 320 ft 1 kts 333°
2026-05-07 18:31 40.90624 29.31780 320 ft 2 kts 316°
2026-05-07 18:32 40.90614 29.31795 320 ft 2 kts 303°
2026-05-07 18:32 40.90607 29.31813 320 ft 2 kts 288°
2026-05-07 18:32 40.90604 29.31832 320 ft 2 kts 274°
2026-05-07 18:32 40.90604 29.31852 320 ft 2 kts 259°
2026-05-07 18:33 40.90608 29.31870 320 ft 1 kts 246°
2026-05-07 18:33 40.90611 29.31877 320 ft 1 kts 242°
2026-05-07 18:33 40.90611 29.31878 320 ft 0 kts 242°
2026-05-07 18:36 40.90611 29.31877 320 ft 0 kts 242°
2026-05-07 18:36 40.90599 29.31847 320 ft 7 kts 243°
2026-05-07 18:36 40.90570 29.31769 320 ft 10 kts 244°
2026-05-07 18:36 40.90535 29.31674 320 ft 11 kts 244°
2026-05-07 18:37 40.90489 29.31548 320 ft 16 kts 244°
2026-05-07 18:37 40.90446 29.31445 320 ft 12 kts 218°
2026-05-07 18:37 40.90358 29.31474 320 ft 13 kts 153°
2026-05-07 18:37 40.90278 29.31481 320 ft 11 kts 218°
2026-05-07 18:38 40.90237 29.31388 320 ft 12 kts 243°
2026-05-07 18:38 40.90194 29.31274 320 ft 16 kts 243°
2026-05-07 18:38 40.90139 29.31123 320 ft 19 kts 244°
2026-05-07 18:38 40.90081 29.30966 320 ft 18 kts 243°
2026-05-07 18:39 40.90026 29.30820 320 ft 17 kts 244°
2026-05-07 18:39 40.89967 29.30657 320 ft 22 kts 244°
2026-05-07 18:39 40.89900 29.30474 320 ft 21 kts 244°
2026-05-07 18:39 40.89836 29.30303 320 ft 20 kts 244°
2026-05-07 18:40 40.89776 29.30139 320 ft 19 kts 244°
2026-05-07 18:40 40.89720 29.29986 320 ft 17 kts 244°
2026-05-07 18:40 40.89667 29.29842 320 ft 16 kts 244°
2026-05-07 18:40 40.89617 29.29707 319 ft 15 kts 243°
2026-05-07 18:41 40.89570 29.29581 319 ft 14 kts 244°
2026-05-07 18:41 40.89527 29.29463 319 ft 13 kts 244°
2026-05-07 18:41 40.89487 29.29354 319 ft 12 kts 244°
2026-05-07 18:41 40.89440 29.29265 319 ft 11 kts 205°
2026-05-07 18:42 40.89366 29.29275 319 ft 10 kts 155°
2026-05-07 18:42 40.89301 29.29316 319 ft 9 kts 152°
2026-05-07 18:42 40.89288 29.29383 319 ft 8 kts 63°
2026-05-07 18:42 40.89317 29.29462 319 ft 14 kts 64°
2026-05-07 18:43 40.89470 29.29876 320 ft 86 kts 63°
2026-05-07 18:43 40.89828 29.30847 320 ft 148 kts 63°
2026-05-07 18:43 40.90346 29.32237 589 ft 173 kts 62°
2026-05-07 18:43 40.90860 29.33608 1277 ft 175 kts 62°
2026-05-07 18:44 40.91394 29.35105 1887 ft 182 kts 63°
2026-05-07 18:44 40.91895 29.36585 2569 ft 178 kts 64°
2026-05-07 18:44 40.92403 29.38112 3086 ft 183 kts 63°
2026-05-07 18:44 40.92903 29.39639 3610 ft 186 kts 64°
2026-05-07 18:45 40.93232 29.41359 3967 ft 203 kts 93°
2026-05-07 18:45 40.92648 29.43111 4259 ft 220 kts 135°
2026-05-07 18:45 40.91472 29.44465 4709 ft 231 kts 142°
2026-05-07 18:45 40.90210 29.45829 5250 ft 240 kts 138°
2026-05-07 18:46 40.89225 29.47612 5810 ft 250 kts 111°
2026-05-07 18:46 40.88750 29.49915 6279 ft 264 kts 100°
2026-05-07 18:46 40.88390 29.52326 6732 ft 278 kts 101°
2026-05-07 18:46 40.87943 29.54889 7264 ft 289 kts 103°
2026-05-07 18:47 40.87434 29.57454 7962 ft 294 kts 104°
2026-05-07 18:47 40.86888 29.60066 8768 ft 295 kts 104°
2026-05-07 18:47 40.86340 29.62655 9531 ft 298 kts 104°
2026-05-07 18:47 40.85778 29.65316 10334 ft 301 kts 104°
2026-05-07 18:48 40.85204 29.68057 10796 ft 316 kts 104°
2026-05-07 18:48 40.84606 29.70915 11224 ft 332 kts 104°
2026-05-07 18:48 40.83984 29.73888 11649 ft 347 kts 104°
2026-05-07 18:48 40.83331 29.77006 12292 ft 355 kts 104°
2026-05-07 18:49 40.82664 29.80177 13034 ft 361 kts 104°
2026-05-07 18:49 40.81992 29.83370 13782 ft 365 kts 104°
2026-05-07 18:49 40.81309 29.86611 14530 ft 370 kts 103°
2026-05-07 18:49 40.80609 29.89928 15254 ft 375 kts 103°
2026-05-07 18:50 40.79909 29.93237 15965 ft 380 kts 103°
2026-05-07 18:50 40.79192 29.96627 16642 ft 386 kts 103°
2026-05-07 18:50 40.78465 30.00055 17342 ft 390 kts 103°
2026-05-07 18:50 40.77737 30.03486 17996 ft 394 kts 103°
2026-05-07 18:51 40.76988 30.07007 18643 ft 399 kts 103°
2026-05-07 18:51 40.76228 30.10572 19296 ft 403 kts 103°
2026-05-07 18:51 40.75474 30.14105 19884 ft 407 kts 102°
2026-05-07 18:51 40.74701 30.17722 20516 ft 410 kts 102°
2026-05-07 18:52 40.73927 30.21337 21079 ft 415 kts 102°
2026-05-07 18:52 40.73132 30.25045 21643 ft 419 kts 102°
2026-05-07 18:52 40.72341 30.28727 22192 ft 422 kts 102°
2026-05-07 18:52 40.71541 30.32442 22692 ft 427 kts 102°
2026-05-07 18:53 40.70718 30.36259 23248 ft 431 kts 101°
2026-05-07 18:53 40.69897 30.40068 23674 ft 437 kts 101°
2026-05-07 18:53 40.69066 30.43915 23964 ft 442 kts 101°
2026-05-07 18:53 40.68218 30.47829 24659 ft 442 kts 101°
2026-05-07 18:54 40.67372 30.51718 25257 ft 444 kts 101°
2026-05-07 18:54 40.66519 30.55635 25763 ft 448 kts 101°
2026-05-07 18:54 40.65657 30.59591 26322 ft 451 kts 101°
2026-05-07 18:54 40.64795 30.63538 26804 ft 454 kts 101°
2026-05-07 18:55 40.63914 30.67571 27283 ft 458 kts 102°
2026-05-07 18:55 40.63031 30.71603 27735 ft 462 kts 102°
2026-05-07 18:55 40.62150 30.75684 28219 ft 464 kts 101°
2026-05-07 18:55 40.61278 30.79786 28682 ft 467 kts 101°
2026-05-07 18:56 40.60411 30.83904 29039 ft 472 kts 101°
2026-05-07 18:56 40.59535 30.88073 29532 ft 474 kts 101°
2026-05-07 18:56 40.58659 30.92225 30125 ft 473 kts 101°
2026-05-07 18:56 40.57824 30.96425 30761 ft 468 kts 97°
2026-05-07 18:57 40.57280 31.00604 31368 ft 462 kts 91°
2026-05-07 18:57 40.57070 31.04767 31928 ft 456 kts 85°
2026-05-07 18:57 40.57191 31.08896 32421 ft 451 kts 78°
2026-05-07 18:57 40.57651 31.12996 32954 ft 445 kts 72°
2026-05-07 18:58 40.58421 31.16879 33432 ft 439 kts 65°
2026-05-07 18:58 40.59485 31.20647 33920 ft 435 kts 61°
2026-05-07 18:58 40.60640 31.24301 34439 ft 432 kts 61°
2026-05-07 18:58 40.61737 31.28008 34799 ft 434 kts 64°
2026-05-07 18:59 40.62712 31.31828 35164 ft 436 kts 66°
2026-05-07 18:59 40.63545 31.35693 35528 ft 437 kts 69°
2026-05-07 18:59 40.64267 31.39576 35853 ft 437 kts 71°
2026-05-07 18:59 40.64923 31.43531 36136 ft 439 kts 72°
2026-05-07 19:00 40.65531 31.47484 36440 ft 439 kts 73°
2026-05-07 19:00 40.66107 31.51395 36733 ft 441 kts 73°
2026-05-07 19:00 40.66617 31.55411 37041 ft 443 kts 77°
2026-05-07 19:00 40.66935 31.59475 37190 ft 447 kts 80°
2026-05-07 19:01 40.67129 31.63588 37179 ft 446 kts 82°
2026-05-07 19:01 40.67374 31.71758 37179 ft 444 kts 83°
2026-05-07 19:02 40.67600 31.79918 37181 ft 444 kts 83°
2026-05-07 19:02 40.67853 31.88092 37184 ft 444 kts 82°
2026-05-07 19:03 40.68121 31.96151 37195 ft 443 kts 82°
2026-05-07 19:03 40.68398 32.04250 37190 ft 444 kts 82°
2026-05-07 19:04 40.68677 32.12419 37192 ft 445 kts 82°
2026-05-07 19:04 40.68949 32.20503 37190 ft 443 kts 82°
2026-05-07 19:05 40.69218 32.28607 37190 ft 443 kts 82°
2026-05-07 19:05 40.69481 32.36732 37194 ft 444 kts 82°
2026-05-07 19:06 40.69735 32.44802 37196 ft 442 kts 82°
2026-05-07 19:06 40.70108 32.56927 37196 ft 441 kts 82°
2026-05-07 19:07 40.70349 32.64963 37197 ft 442 kts 82°
2026-05-07 19:07 40.70587 32.73084 37195 ft 442 kts 83°
2026-05-07 19:08 40.70817 32.81162 37193 ft 442 kts 83°
2026-05-07 19:08 40.71041 32.89272 37195 ft 442 kts 83°
2026-05-07 19:09 40.71260 32.97324 37196 ft 441 kts 83°
2026-05-07 19:09 40.71473 33.05379 37194 ft 441 kts 83°
2026-05-07 19:10 40.71684 33.13504 37198 ft 442 kts 83°
2026-05-07 19:10 40.71885 33.21572 37190 ft 441 kts 83°
2026-05-07 19:11 40.72081 33.29647 37199 ft 440 kts 83°
2026-05-07 19:11 40.72271 33.37705 37197 ft 440 kts 83°
2026-05-07 19:12 40.72456 33.45751 37184 ft 440 kts 83°
2026-05-07 19:12 40.72634 33.53798 37193 ft 440 kts 83°
2026-05-07 19:13 40.72808 33.61855 37187 ft 440 kts 83°
2026-05-07 19:13 40.72975 33.69908 37190 ft 441 kts 84°
2026-05-07 19:14 40.73137 33.77958 37190 ft 439 kts 84°
2026-05-07 19:14 40.73295 33.86018 37190 ft 441 kts 84°
2026-05-07 19:15 40.73445 33.94064 37197 ft 439 kts 84°
2026-05-07 19:15 40.73590 34.02119 37199 ft 440 kts 84°
2026-05-07 19:16 40.73729 34.10133 37194 ft 440 kts 84°
2026-05-07 19:16 40.73864 34.18198 37197 ft 440 kts 84°
2026-05-07 19:17 40.73992 34.26202 37200 ft 440 kts 84°
2026-05-07 19:17 40.74115 34.34254 37192 ft 439 kts 84°
2026-05-07 19:18 40.74233 34.42348 37195 ft 440 kts 84°
2026-05-07 19:18 40.74344 34.50337 37179 ft 440 kts 84°
2026-05-07 19:19 40.74451 34.58405 37175 ft 440 kts 84°
2026-05-07 19:19 40.74553 34.66475 37172 ft 441 kts 85°
2026-05-07 19:20 40.74687 34.74509 37171 ft 439 kts 83°
2026-05-07 19:20 40.75245 34.82525 37172 ft 436 kts 79°
2026-05-07 19:21 40.76003 34.90422 37172 ft 436 kts 79°
2026-05-07 19:21 40.76765 34.98343 37167 ft 436 kts 79°
2026-05-07 19:22 40.77497 35.06313 37174 ft 437 kts 79°
2026-05-07 19:22 40.78201 35.14253 37174 ft 436 kts 79°
2026-05-07 19:23 40.78891 35.22203 37172 ft 438 kts 79°
2026-05-07 19:23 40.79575 35.30204 37162 ft 437 kts 79°
2026-05-07 19:24 40.80245 35.38119 37153 ft 436 kts 79°
2026-05-07 19:24 40.80914 35.46085 37148 ft 436 kts 79°
2026-05-07 19:25 40.81584 35.54120 37139 ft 437 kts 79°
2026-05-07 19:25 40.82238 35.62040 37143 ft 437 kts 79°
2026-05-07 19:26 40.82892 35.70027 37147 ft 437 kts 80°
2026-05-07 19:26 40.83540 35.78021 37160 ft 437 kts 80°
2026-05-07 19:27 40.84187 35.86048 37159 ft 437 kts 80°
2026-05-07 19:27 40.84819 35.93980 37161 ft 437 kts 80°
2026-05-07 19:28 40.85449 36.01953 37165 ft 435 kts 80°
2026-05-07 19:28 40.86071 36.09883 37165 ft 436 kts 81°
2026-05-07 19:29 40.86693 36.17892 37168 ft 437 kts 81°
2026-05-07 19:29 40.87306 36.25854 37160 ft 436 kts 81°
2026-05-07 19:30 40.87914 36.33828 37169 ft 436 kts 81°
2026-05-07 19:30 40.88517 36.41820 37175 ft 436 kts 81°
2026-05-07 19:31 40.89115 36.49800 37173 ft 435 kts 81°
2026-05-07 19:31 40.89706 36.57781 37176 ft 435 kts 81°
2026-05-07 19:32 40.90291 36.65737 37179 ft 435 kts 82°
2026-05-07 19:32 40.90873 36.73730 37188 ft 435 kts 82°
2026-05-07 19:33 40.91445 36.81679 37192 ft 436 kts 82°
2026-05-07 19:33 40.92015 36.89663 37184 ft 434 kts 82°
2026-05-07 19:34 40.92573 36.97568 37177 ft 433 kts 82°
2026-05-07 19:34 40.93130 37.05521 37176 ft 435 kts 82°
2026-05-07 19:35 40.93682 37.13478 37175 ft 435 kts 82°
2026-05-07 19:35 40.94228 37.21447 37078 ft 432 kts 82°
2026-05-07 19:36 40.94494 37.25372 36763 ft 426 kts 82°
2026-05-07 19:36 40.94756 37.29281 36281 ft 423 kts 82°
2026-05-07 19:36 40.95017 37.33166 35726 ft 424 kts 81°
2026-05-07 19:36 40.95276 37.37018 35200 ft 427 kts 81°
2026-05-07 19:37 40.95537 37.40911 34549 ft 432 kts 81°
2026-05-07 19:37 40.95805 37.44920 33841 ft 437 kts 81°
2026-05-07 19:37 40.96073 37.48947 33070 ft 440 kts 81°
2026-05-07 19:37 40.96337 37.52940 32511 ft 439 kts 81°
2026-05-07 19:38 40.96598 37.56959 31962 ft 436 kts 81°
2026-05-07 19:38 40.96856 37.60941 31418 ft 434 kts 81°
2026-05-07 19:38 40.97109 37.64896 30871 ft 432 kts 81°
2026-05-07 19:38 40.97361 37.68834 30292 ft 430 kts 82°
2026-05-07 19:39 40.97609 37.72734 29713 ft 426 kts 82°
2026-05-07 19:39 40.97857 37.76651 29160 ft 422 kts 82°
2026-05-07 19:39 40.98097 37.80478 28630 ft 418 kts 82°
2026-05-07 19:39 40.98336 37.84290 28096 ft 413 kts 82°
2026-05-07 19:40 40.98569 37.88024 27574 ft 409 kts 82°
2026-05-07 19:40 40.98803 37.91785 27045 ft 405 kts 82°
2026-05-07 19:40 40.99030 37.95450 26530 ft 401 kts 82°
2026-05-07 19:40 40.99256 37.99128 26011 ft 397 kts 82°
2026-05-07 19:41 40.99475 38.02713 25502 ft 394 kts 82°
2026-05-07 19:41 40.99695 38.06306 24997 ft 390 kts 82°
2026-05-07 19:41 40.99912 38.09889 24486 ft 386 kts 82°
2026-05-07 19:41 41.00124 38.13401 23989 ft 382 kts 82°
2026-05-07 19:42 41.00331 38.16861 23493 ft 379 kts 82°
2026-05-07 19:42 41.00537 38.20322 22994 ft 375 kts 82°
2026-05-07 19:42 41.00740 38.23746 22502 ft 372 kts 82°
2026-05-07 19:42 41.00941 38.27140 22020 ft 368 kts 82°
2026-05-07 19:43 41.01139 38.30497 21532 ft 364 kts 82°
2026-05-07 19:43 41.01333 38.33816 21060 ft 360 kts 82°
2026-05-07 19:43 41.01523 38.37079 20589 ft 357 kts 82°
2026-05-07 19:43 41.01712 38.40332 20114 ft 353 kts 82°
2026-05-07 19:44 41.01897 38.43545 19649 ft 349 kts 82°
2026-05-07 19:44 41.02082 38.46764 19188 ft 345 kts 82°
2026-05-07 19:44 41.02261 38.49870 18741 ft 341 kts 82°
2026-05-07 19:44 41.02439 38.52991 18291 ft 338 kts 82°
2026-05-07 19:45 41.02615 38.56101 17844 ft 334 kts 83°
2026-05-07 19:45 41.02785 38.59122 17410 ft 331 kts 83°
2026-05-07 19:45 41.02955 38.62151 16967 ft 328 kts 83°
2026-05-07 19:45 41.03122 38.65154 16532 ft 324 kts 83°
2026-05-07 19:46 41.03286 38.68120 16094 ft 321 kts 84°
2026-05-07 19:46 41.03448 38.71052 15671 ft 318 kts 84°
2026-05-07 19:46 41.03608 38.73951 15257 ft 314 kts 83°
2026-05-07 19:46 41.03766 38.76825 14831 ft 311 kts 84°
2026-05-07 19:47 41.03918 38.79632 14423 ft 307 kts 84°
2026-05-07 19:47 41.04071 38.82445 14011 ft 304 kts 84°
2026-05-07 19:47 41.04221 38.85220 13602 ft 300 kts 84°
2026-05-07 19:47 41.04369 38.87952 13204 ft 297 kts 84°
2026-05-07 19:48 41.04514 38.90670 12910 ft 292 kts 84°
2026-05-07 19:48 41.04660 38.93394 12754 ft 306 kts 84°
2026-05-07 19:48 41.04816 38.96287 12247 ft 317 kts 84°
2026-05-07 19:48 41.04968 38.99153 11822 ft 313 kts 84°
2026-05-07 19:49 41.05117 39.02023 11403 ft 310 kts 84°
2026-05-07 19:49 41.05264 39.04858 10981 ft 307 kts 84°
2026-05-07 19:49 41.05410 39.07677 10585 ft 304 kts 84°
2026-05-07 19:49 41.05552 39.10426 10180 ft 302 kts 84°
2026-05-07 19:50 41.05732 39.13167 9947 ft 292 kts 80°
2026-05-07 19:50 41.06193 39.15741 9818 ft 282 kts 70°
2026-05-07 19:50 41.06902 39.18193 9324 ft 285 kts 65°
2026-05-07 19:50 41.07691 39.20597 8896 ft 284 kts 65°
2026-05-07 19:51 41.08471 39.23002 8481 ft 284 kts 66°
2026-05-07 19:51 41.09214 39.25389 8088 ft 282 kts 66°
2026-05-07 19:51 41.09942 39.27799 7693 ft 281 kts 67°
2026-05-07 19:51 41.10657 39.30202 7292 ft 280 kts 67°
2026-05-07 19:52 41.11364 39.32590 6902 ft 278 kts 67°
2026-05-07 19:52 41.12084 39.35014 6301 ft 285 kts 68°
2026-05-07 19:52 41.12733 39.37481 5923 ft 279 kts 78°
2026-05-07 19:52 41.12622 39.39948 5591 ft 267 kts 111°
2026-05-07 19:53 41.11638 39.41958 5346 ft 254 kts 131°
2026-05-07 19:53 41.10501 39.43724 5082 ft 244 kts 126°
2026-05-07 19:53 41.09609 39.45554 4839 ft 235 kts 117°
2026-05-07 19:53 41.08897 39.47468 4624 ft 228 kts 113°
2026-05-07 19:54 41.08268 39.49397 4357 ft 225 kts 109°
2026-05-07 19:54 41.07830 39.51374 4124 ft 221 kts 103°
2026-05-07 19:54 41.07424 39.53318 3894 ft 218 kts 108°
2026-05-07 19:54 41.06895 39.55185 3681 ft 215 kts 112°
2026-05-07 19:55 41.06300 39.56995 3461 ft 213 kts 112°
2026-05-07 19:55 41.05722 39.58797 3252 ft 208 kts 111°
2026-05-07 19:55 41.05186 39.60559 3028 ft 204 kts 111°
2026-05-07 19:55 41.04676 39.62231 2899 ft 193 kts 111°
2026-05-07 19:56 41.04163 39.63892 2556 ft 194 kts 111°
2026-05-07 19:56 41.03663 39.65517 2264 ft 185 kts 111°
2026-05-07 19:56 41.03196 39.67038 1998 ft 170 kts 111°
2026-05-07 19:56 41.02772 39.68412 1793 ft 153 kts 111°
2026-05-07 19:57 41.02374 39.69701 1505 ft 146 kts 111°
2026-05-07 19:57 41.01990 39.70944 1310 ft 145 kts 111°
2026-05-07 19:57 41.01610 39.72174 1090 ft 144 kts 111°
2026-05-07 19:57 41.01233 39.73395 883 ft 145 kts 111°
2026-05-07 19:58 41.00851 39.74628 695 ft 143 kts 112°
2026-05-07 19:58 41.00464 39.75845 469 ft 143 kts 112°
2026-05-07 19:58 41.00099 39.77068 249 ft 142 kts 111°
2026-05-07 19:58 40.99719 39.78262 112 ft 131 kts 112°
2026-05-07 19:59 40.99478 39.79062 112 ft 54 kts 112°
2026-05-07 19:59 40.99425 39.79223 112 ft 7 kts 132°
2026-05-07 19:59 40.99371 39.79213 112 ft 8 kts 222°
2026-05-07 19:59 40.99346 39.79155 112 ft 3 kts 248°
2026-05-07 20:00 40.99343 39.79146 112 ft 0 kts 249°
2026-05-07 20:00 40.99343 39.79144 112 ft 0 kts 249°
2026-05-07 20:00 40.99334 39.79076 111 ft 16 kts 278°
2026-05-07 20:00 40.99372 39.78940 112 ft 13 kts 294°
2026-05-07 20:01 40.99407 39.78827 112 ft 12 kts 292°
2026-05-07 20:01 40.99441 39.78719 112 ft 12 kts 292°
2026-05-07 20:01 40.99472 39.78617 112 ft 11 kts 292°
2026-05-07 20:01 40.99503 39.78519 112 ft 11 kts 292°
2026-05-07 20:02 40.99497 39.78439 112 ft 8 kts 213°
2026-05-07 20:02 40.99480 39.78428 112 ft 0 kts 205°
2026-05-07 20:02 40.99464 39.78419 112 ft 2 kts 204°
2026-05-07 20:02 40.99463 39.78418 112 ft 0 kts 204°